Weather Roundup
Issued by NWS

Home | Current Version | Previous Version | Text Only | Print | Product List | Glossary On
Versions: 1 2 3 4 5 6 7 8 9 10 11 12 13 14 15 16 17 18 19 20 21 22 23 24 25 26 27 28 29 30 31 32 33 34 35 36 37 38 39 40 41 42 43 44 45 46 47 48 49 50
000
NZUS93 KARX 150710
HRRWXR

CURRENT HOURLY OBSERVATIONS ACROSS
MUCH OF THE UPPER MISSISSIPPI VALLEY
NATIONAL WEATHER SERVICE LA CROSSE WI
100 AM CST FRI DEC 15 2017


...SOUTHEAST MINNESOTA...


CITY           SKY/WX    TMP DP  RH WIND       PRES   REMARKS
ROCHESTER      CLOUDY    22  18  85 W14       29.94F WCI   9
ROCHESTER/MAYO CLOUDY    24  19  80 W12G20    29.95S WCI  13
WINONA           N/A     27  19  74 W10       29.96F WCI  17
AUSTIN         FLURRIES  25  18  74 W9        29.97F WCI  15
ALBERT LEA     CLOUDY    25  19  80 NW7       29.99S WCI  17
DODGE CENTER   FLURRIES  21  18  86 W14       29.95S WCI   8
PRESTON        CLOUDY    22  16  78 NW12      29.94F WCI  10
OWATONNA       CLOUDY    23  19  86 W9        29.97F WCI  13
FARIBAULT      CLOUDY    23  18  80 W8        29.98F WCI  14
$$

...ELSEWHERE IN MINNESOTA...


CITY           SKY/WX    TMP DP  RH WIND       PRES   REMARKS
MINNEAPOLIS    CLOUDY    23  17  78 W10       29.97F WCI  12
INTNL FALLS    CLOUDY    10   4  76 W9        29.87F HAZE    WCI  -3
DULUTH         FLURRIES  11   7  84 NW9       29.83F WCI  -2
RED WING       CLOUDY    25  14  63 NW8       29.94F WCI  16
REDWOOD FALLS  CLOUDY    28  23  81 W12       29.97F WCI  18
MANKATO        FLURRIES  24  21  88 W5        30.00F WCI  18
WORTHINGTON    FLURRIES  25  22  88 SW13      30.00F WCI  14
FAIRMONT       CLOUDY    26  21  81 W8        30.00F WCI  18
$$

...SOUTHWEST WISCONSIN...


CITY           SKY/WX    TMP DP  RH WIND       PRES   REMARKS
LA CROSSE      CLOUDY    25  17  72 W8        29.95F WCI  16
PRAIRIE DU CHI CLOUDY    26  17  68 NW7       29.98F WCI  19
BOSCOBEL       CLOUDY    25  16  68 VRB6      29.98F WCI  18
LONE ROCK      CLOUDY    24  17  74 W17       29.95F WCI  11
PLATTEVILLE    CLOUDY    24  18  76 NW16G22   29.96F WCI  11
FORT MC COY    CLOUDY    22  16  78 W5        29.93F WCI  15
MAUSTON-NEW LI CLOUDY    23  18  80 W8        29.91F WCI  14
VIROQUA        CLOUDY    21  18  88 W10       29.91F WCI  10
WIS DELLS      CLOUDY    23  17  77 NW10      29.90F WCI  12
$$

...ELSEWHERE IN WISCONSIN...


CITY           SKY/WX    TMP DP  RH WIND       PRES   REMARKS
MILWAUKEE      CLOUDY    22  14  71 S9        29.94F WCI  12
MADISON        CLOUDY    24  16  71 W6        29.91F WCI  17
GREEN BAY      FLURRIES  21  16  81 SW7       29.87F WCI  12
EAU CLAIRE     FLURRIES  21  15  78 W12       29.90F WCI   9
BLACK RVR FLS  FLURRIES  22  14  71 W7        29.92F WCI  14
MEDFORD        LGT SNOW  15  12  87 W6        29.82F WCI   7
WAUSAU         FLURRIES  17  14  88 W8        29.83F WCI   7
WIS RAPIDS     CLOUDY    20  11  68 W9        29.90F WCI   9
MARSHFIELD     FLURRIES  18  13  80 W9        29.85F WCI   7
RICE LAKE      LGT SNOW  19  15  84 W7        29.90F WCI  10
$$

...NORTHEAST IOWA...


CITY           SKY/WX    TMP DP  RH WIND       PRES   REMARKS
WATERLOO       PTCLDY    25  16  68 NW12      30.01F WCI  14
DUBUQUE        CLOUDY    25  19  78 W12       29.96F WCI  14
DECORAH        CLOUDY    25  18  74 NW9G16    29.95S WCI  15
MASON CITY     CLOUDY    24  18  77 W12       30.01F WCI  13
CHARLES CITY   MOCLDY    23  18  80 W7        29.99F WCI  15
OELWEIN        CLOUDY    25  19  80 NW14      29.99F WCI  13
$$

...ELSEWHERE IN IOWA...


CITY           SKY/WX    TMP DP  RH WIND       PRES   REMARKS
DES MOINES     FRZ DRZL  32  25  75 N9        30.06S WCI  24
IOWA CITY      CLOUDY    29  20  69 W8        30.04F WCI  21
FORT DODGE     FLURRIES  23  20  88 CALM      30.05F
MARSHALLTOWN   CLOUDY    27  24  89 NW13      30.03F WCI  16
CEDAR RAPIDS   FLURRIES  27  21  78 NW12      30.00F WCI  17
$$

...NORTHERN ILLINOIS...


CITY           SKY/WX    TMP DP  RH WIND       PRES   REMARKS
CHICAGO-OHARE  CLOUDY    22  12  65 SW6       29.99F WCI  14
CHICAGO-MIDWAY CLOUDY    22  13  68 SW6       30.00F WCI  14
MOLINE         CLOUDY    27  18  69 W9        30.01F WCI  18
ROCKFORD       CLOUDY    24  16  71 SW8       29.99F WCI  15
PEORIA         CLOUDY    26  17  68 W6        30.05F WCI  19
$$

NOTE: "FAIR" INDICATES FEW OR NO CLOUDS BELOW 12,000 FEET WITH NO
SIGNIFICANT WEATHER AND/OR OBSTRUCTIONS TO VISIBILITY. WIND
SPEEDS ARE IN MILES-PER-HOUR.




USA.gov is the U.S. government's official web portal to all federal, state and local government web resources and services.